Regional Weather Roundup
Issued by NWS

Home | Current Version | Previous Version | Text Only | Print | Product List | Glossary On
Versions: 1 2 3 4 5 6 7 8 9 10 11 12 13 14 15 16 17 18 19 20 21 22 23 24 25 26 27 28 29 30 31 32 33 34 35 36 37 38 39 40 41 42 43 44 45 46 47 48 49 50
000
ASUS43 KLMK 190502
RWRKY
KENTUCKY REGIONAL WEATHER ROUNDUP
NATIONAL WEATHER SERVICE LOUISVILLE KY
1200 AM EST FRI DEC 19 2014

NOTE "FAIR" INDICATES FEW OR NO CLOUDS BELOW 12,000 FEET
WITH NO SIGNIFICANT WEATHER AND/OR OBSTRUCTIONS TO VISIBILITY.

KYZ001>023-026-027-061>063-070>075-190600-
WESTERN AND SOUTH CENTRAL KENTUCKY

CITY           SKY/WX    TMP DP  RH WIND       PRES   REMARKS
PADUCAH        CLOUDY    34  30  85 NE5       30.26F WCI  30
HENDERSON      CLOUDY    32  25  74 N5        30.29S WCI  27
OWENSBORO      CLOUDY    33  27  79 MISG      30.29R
HOPKINSVILLE   CLOUDY    34  30  84 N6        30.25F WCI  29
BOWLING GREEN  CLOUDY    35  26  69 N3        30.27R
GLASGOW        NOT AVBL
$$

KYZ024-025-028>034-038-045-046-053-190600-
NORTH CENTRAL KENTUCKY

CITY           SKY/WX    TMP DP  RH WIND       PRES   REMARKS
LOUISVILLE/SDF CLOUDY    33  24  69 N3        30.26F
LOUISVILLE/LOU CLOUDY    32  24  72 N3        30.27S
FORT KNOX      CLOUDY    31  26  79 N1        30.24S
$$

KYZ035>037-039>044-047>052-055>060-089>105-190600-
NORTHEAST KENTUCKY

CITY           SKY/WX    TMP DP  RH WIND       PRES   REMARKS
LEXINGTON      CLOUDY    29  24  82 N6        30.23S WCI  23
COVINGTON      PTCLDY    27  20  75 N3        30.24S
FRANKFORT      CLOUDY    30  23  75 N3        30.24S
$$

KYZ054-064>069-076>088-106>120-190600-
SOUTHEAST KENTUCKY

CITY           SKY/WX    TMP DP  RH WIND       PRES   REMARKS
JACKSON        CLOUDY    31  24  75 CALM      30.20R
LONDON         CLOUDY    34  25  69 N5        30.21R WCI  30
SOMERSET       NOT AVBL
MIDDLESBORO    NOT AVBL
MONTICELLO     CLOUDY    33  28  82 CALM      30.26R
$$



USA.gov is the U.S. government's official web portal to all federal, state and local government web resources and services.